Weather in Shyshaky

Ukraine / Poltava Region     49˚51′14″N   33˚18′05″E
temp.,
°C
wind,
m/s
gust,
m/s
humid.,
%
clouds,
%
prec.,
mm/h
press.,
hPa
HPBL,
m
3 december, thu
thu323:00−1˚ese479097 0.1 1029356
02:00−2˚ese479597 0.8 1029316
05:00−1˚ese359494 0.1 1028310
08:00−1˚e469492 0.3 1028258
11:00+1˚ese469396 0.1 1028347
14:00+2˚ese369698 0.1 1027222
17:00+1˚ese4897100 0.0 1026327
20:00+1˚ese5109199 0.0 1026359
4 december, fri
fri423:00+1˚ese599097 0.0 1026361
02:00+1˚ese499397 0.0 1026309
05:00+2˚se51091100 0.1 1025424
08:00+2˚se6119097 0.1 1026493
11:00+2˚se61085100 0.0 1026506
14:00+3˚ese698099 0.0 1026540
17:00+2˚ese6128383 0.0 1026498
20:00+1˚se6138867 0.0 1027514
5 december, sat
sat523:00+2˚se6118580 0.0 1028543
02:00+2˚ese6108390 0.0 1028519
05:00+1˚ese6108499 0.0 1028540
08:00+1˚ese6108299 0.0 1030616
11:00+2˚ese6974100 0.0 1030623
14:00+2˚ese697083 0.0 1030553
17:00ese511760 0.0 1030442
20:00−1˚ese612710 0.0 1032399
6 december, sun
sun623:00−2˚ese611600 0.0 1032407
02:00−3˚ese511590 0.0 1033374
05:00−4˚e512600 0.0 1033357
08:00−4˚e512560 0.0 1034380
11:00−1˚ese611420 0.0 1034457
14:00−1˚ese611440 0.0 1032494
17:00−3˚e613520 0.0 1032418
20:00−4˚ese612560 0.0 1033416
7 december, mon
mon723:00−5˚ese612590 0.0 1033415
02:00−6˚ese612730 0.0 1033401
05:00−6˚ese612750 0.0 1033383
08:00−6˚ese613690 0.0 1033388
11:00−3˚ese712560 0.0 1032495
14:00−2˚ese612490 0.0 1031564
17:00−4˚e613630 0.0 1031493
20:00−5˚ese613700 0.0 1031501